User: anonymous
Location: Caltech
(34.1382°N, 118.1253°W)
Time: 08:52:24
(UTC-07:00)
Language:

Gbstr 26 Del rocket - Orbit

View from above orbital plane
View from above orbital plane
View from above satellite
View from above satellite

Ground track
Ground track

The orbit data is extracted from the following two-line orbital elements,

1 25876U 99041E   14109.63510126  .00002947  00000-0  55168-3 0  3523
2 25876 051.7664 186.6754 0541261 266.9844 249.0356 14.01867146752500
Epoch (UTC): 19 April 2014 15:14:32
Eccentricity: 0.0541261
inclination: 51.7664°
perigee height: 494 km
apogee height: 1280 km
right ascension of ascending node: 186.6754°
argument of perigee: 266.9844°
revolutions per day: 14.01867146
mean anomaly at epoch: 249.0356°
orbit number at epoch: 75250

The dashed part of the orbit path shows where the satellite is in the earth's shadow,  

DLR